[[{"header":{"parameterUnit":"m.s-1","parameterCategory":1,"la1":30.2991,"la2":30.254,"lo1":-89.0895,"lo2":-89.0444,"dy":0.0017,"dx":0.0017,"nx":28,"ny":28,"refTime":"2025-05-21T03:00:00:Z","depth":0,"parameterNumber":2,"parameterNumberName":"U-component_of_WINDS"},"data":[0,0,0,0,0,0,0,0,0,0,0,0,0,0,0,0,0,0,0,0,0,0,0,0,0,0,0,0,0,0,0,0,0,0,0,0,0,0,0,0,0,0,0,0,0,0,0,0,0,0,0,0,0,0,0,0,0,0,1.6279,1.6279,0,1.6301,1.6301,1.6301,1.6233,1.6231,1.6229,1.6227,1.6257,1.626,1.6263,0,0,0,0,0,0,0,0,0,0,0,0,0,1.6186,1.6188,1.6279,1.6279,1.628,1.6301,1.6301,1.6301,1.6234,1.6231,1.6228,1.6226,1.6256,1.626,1.6263,0,0,0,0,0,0,0,0,0,0,0,0,0,1.6219,1.6189,1.6279,1.6248,1.6246,1.6301,1.6301,1.6301,1.6234,1.6231,1.6228,1.6225,1.6255,1.6259,1.6263,1.6352,0,0,1.6276,1.6278,0,0,0,0,0,0,0,0,1.6218,1.6223,1.6252,1.625,1.6248,1.6261,1.6279,1.6319,1.6235,1.6239,1.6227,1.6223,1.6262,1.6265,1.6276,1.6353,1.6354,1.6276,1.6279,1.6281,1.6282,0,0,0,0,0,0,0,1.6215,1.6222,1.6288,1.6253,1.625,1.6236,1.6237,1.6286,1.6268,1.6238,1.6233,1.6236,1.626,1.6272,1.6276,1.6355,1.6276,1.628,1.6283,1.6284,1.6507,1.651,0,0,0,0,0,0,1.6216,1.622,1.6287,1.6288,1.6224,1.624,1.6241,1.626,1.6267,1.6265,1.6239,1.6233,1.6267,1.6272,1.6277,1.6382,1.6281,1.6285,1.6287,1.6503,1.6507,1.6511,0,0,0,0,0,0,1.6214,1.6223,1.6286,1.6253,1.626,1.6245,1.6266,1.6262,1.6274,1.6267,1.6265,1.6255,1.6265,1.6271,1.6333,1.6382,1.6286,1.629,1.6499,1.6505,1.6509,1.6592,0,0,0,0,0,0,1.6212,1.6222,1.6254,1.6254,1.6262,1.634,1.6269,1.6265,1.6281,1.6273,1.6282,1.628,1.6263,1.6328,1.6337,1.6386,1.6293,1.6495,1.6502,1.6508,1.6585,1.6599,1.6611,0,0,0,0,0,1.6209,1.6278,1.6256,1.6265,1.6301,1.6343,1.6348,1.6324,1.6285,1.6318,1.6313,1.628,1.6375,1.6334,1.6345,1.6396,1.6492,1.65,1.6507,1.6579,1.6596,1.6611,0,0,0,0,0,0,1.6287,1.6278,1.6253,1.6324,1.6334,1.6331,1.6372,1.6343,1.6367,1.636,1.6331,1.6334,1.6402,1.6405,1.636,1.6482,1.6427,1.6437,1.6478,1.6494,1.6507,1.6506,1.6297,0,0,0,0,0,1.6312,1.6345,1.6335,1.6399,1.6405,1.6388,1.6405,1.6386,1.6397,1.6402,1.6402,1.6416,1.6449,1.6472,1.6501,1.6584,1.6586,1.6624,1.6638,1.6649,1.6659,1.6704,1.6721,1.6537,1.6536,1.6536,0,0,1.6365,1.6364,1.6387,1.6415,1.642,1.6457,1.6392,1.6434,1.6462,1.6409,1.6467,1.6468,1.6482,1.6555,1.6587,1.6559,1.671,1.6659,1.6667,1.6671,1.6714,1.6731,1.6747,1.6542,1.6541,1.654,0,0,1.6481,1.6482,1.6535,1.6542,1.6551,1.6539,1.6552,1.6553,1.6551,1.6607,1.6569,1.6603,1.666,1.6671,1.6685,1.6805,1.6775,1.6815,1.6886,1.6931,1.6945,1.6958,1.7002,1.7018,1.6825,1.6825,1.6825,0,1.6547,1.6598,1.6567,1.6611,1.6626,1.6576,1.6632,1.664,1.666,1.6672,1.664,1.671,1.6717,1.6792,1.6821,1.6833,1.6849,1.6815,1.6945,1.6958,1.6969,1.7011,1.7028,1.683,1.6829,1.6829,1.6828,0,1.6679,1.6715,1.6758,1.6775,1.6794,1.6844,1.6823,1.6846,1.6825,1.6817,1.6877,1.6882,1.6912,1.6928,1.6909,1.7002,1.6984,1.6949,1.6894,1.6992,1.7031,1.7047,1.6837,1.6835,1.6834,1.6832,0,0,1.6847,1.6845,1.6861,1.6868,1.6874,1.6903,1.6951,1.6978,1.6999,1.7014,1.7056,1.7104,1.7071,1.7087,1.7069,1.7107,1.7204,1.7067,1.7067,1.7094,1.7308,1.7336,1.7354,1.7183,1.7186,1.7188,1.7307,0,1.6961,1.7041,1.7015,1.7096,1.7131,1.7084,1.7126,1.7136,1.713,1.716,1.7154,1.7189,1.7142,1.7152,1.7188,1.7184,1.7246,1.7175,1.7224,1.7226,1.7223,1.7375,1.7404,1.7516,1.7322,1.7325,1.7327,0,1.7106,1.7124,1.7209,1.7209,1.7222,1.726,1.7283,1.7311,1.7322,1.7315,1.7332,1.7305,1.7355,1.7297,1.7366,1.7318,1.7337,1.7338,1.7342,1.7347,1.7284,1.7386,1.7551,1.7569,1.735,1.7348,1.7346,0,1.7222,1.7268,1.7324,1.7332,1.7333,1.7361,1.7363,1.737,1.7388,1.7409,1.742,1.7448,1.7463,1.7486,1.7468,1.7428,1.7541,1.7482,1.7539,1.754,1.7567,1.7566,1.7739,1.7576,1.7576,1.7575,1.7575,0,1.7354,1.7409,1.7376,1.7411,1.7471,1.7441,1.7502,1.7499,1.7505,1.7541,1.7503,1.7538,1.7511,1.7544,1.7531,1.7591,1.7598,1.7596,1.7592,1.76,1.7601,1.7614,1.7606,1.758,1.7579,1.7578,1.7577,0,1.7495,1.7475,1.7534,1.7529,1.7529,1.7573,1.757,1.7604,1.7594,1.764,1.7649,1.7635,1.7671,1.7655,1.7695,1.7686,1.7764,1.7749,1.776,1.7757,1.7815,1.7811,1.8004,1.8029,1.7848,1.785,1.7851,0,1.7581,1.7621,1.762,1.764,1.7644,1.7676,1.7694,1.7666,1.7686,1.7701,1.7733,1.7766,1.7791,1.7853,1.7848,1.7878,1.7865,1.793,1.787,1.7877,1.7868,1.7866,1.7871,1.7944,1.7946,1.7947,1.7949,0,1.7738,1.7726,1.7751,1.7773,1.7794,1.7811,1.7825,1.7844,1.7816,1.7841,1.7877,1.7896,1.7935,1.797,1.7996,1.8001,1.7972,1.7967,1.7983,1.7993,1.7998,1.7997,1.7795,1.7964,1.7962,1.7961,1.7961,1.796,1.7855,1.7889,1.7893,1.7923,1.7929,1.7943,1.7974,1.7967,1.7996,1.8023,1.8006,1.8048,1.8058,1.809,1.8099,1.8134,1.8108,1.813,1.8136,1.8142,1.815,1.799,1.8138,1.8138,1.8138,1.8137,1.8137,0,1.8012,1.8011,1.8038,1.8058,1.8082,1.8048,1.8061,1.8084,1.8121,1.8131,1.8156,1.8198,1.823,1.8227,1.8257,1.8286,1.8273,1.8295,1.8294,1.8296,1.8171,1.8155,1.8305,1.8305,1.8305,1.8305,1.8305,1.8305,1.8096,1.8151,1.8139,1.8199,1.8198,1.8238,1.8248,1.8261,1.8269,1.8317,1.8342,1.8339,1.8344,1.8375,1.8404,1.8402,1.8416,1.8444,1.8437,1.8321,1.8305,1.8289,1.8274,1.8446,1.8447,1.856,1.8561,1.8562]},{"header":{"parameterUnit":"m.s-1","parameterCategory":1,"la1":30.2991,"la2":30.254,"lo1":-89.0895,"lo2":-89.0444,"dy":0.0017,"dx":0.0017,"nx":28,"ny":28,"refTime":"2025-05-21T03:00:00:Z","depth":0,"parameterNumber":3,"parameterNumberName":"V-component_of_WINDS"},"data":[0,0,0,0,0,0,0,0,0,0,0,0,0,0,0,0,0,0,0,0,0,0,0,0,0,0,0,0,0,0,0,0,0,0,0,0,0,0,0,0,0,0,0,0,0,0,0,0,0,0,0,0,0,0,0,0,0,0,-0.2113,-0.2113,0,-0.2119,-0.2119,-0.2119,-0.213,-0.213,-0.213,-0.2131,-0.2137,-0.2137,-0.2137,0,0,0,0,0,0,0,0,0,0,0,0,0,-0.2115,-0.2115,-0.2113,-0.2113,-0.2113,-0.2119,-0.2119,-0.2119,-0.213,-0.213,-0.213,-0.2131,-0.2137,-0.2137,-0.2137,0,0,0,0,0,0,0,0,0,0,0,0,0,-0.2117,-0.2115,-0.2113,-0.2119,-0.212,-0.2119,-0.2119,-0.2119,-0.213,-0.213,-0.2131,-0.2131,-0.2137,-0.2137,-0.2137,-0.2131,0,0,-0.2137,-0.2137,0,0,0,0,0,0,0,0,-0.2117,-0.2117,-0.2118,-0.2119,-0.212,-0.2124,-0.2122,-0.2123,-0.213,-0.2126,-0.2131,-0.2131,-0.2133,-0.2133,-0.2133,-0.2131,-0.2131,-0.2137,-0.2137,-0.2137,-0.2137,0,0,0,0,0,0,0,-0.2116,-0.2116,-0.2116,-0.2118,-0.2119,-0.2123,-0.2124,-0.2122,-0.2128,-0.2127,-0.2127,-0.2128,-0.2133,-0.2133,-0.2134,-0.2132,-0.2137,-0.2137,-0.2137,-0.2137,-0.2129,-0.2129,0,0,0,0,0,0,-0.2115,-0.2116,-0.2115,-0.2116,-0.2119,-0.2123,-0.2123,-0.2122,-0.2128,-0.2129,-0.2128,-0.2128,-0.2133,-0.2134,-0.2134,-0.213,-0.2137,-0.2137,-0.2137,-0.2129,-0.2129,-0.2129,0,0,0,0,0,0,-0.2115,-0.2115,-0.2115,-0.2116,-0.2117,-0.2122,-0.2121,-0.2122,-0.2123,-0.2128,-0.213,-0.2127,-0.2134,-0.2134,-0.2132,-0.213,-0.2137,-0.2137,-0.2129,-0.2129,-0.2129,-0.2119,0,0,0,0,0,0,-0.2115,-0.2115,-0.2111,-0.2116,-0.2116,-0.2112,-0.2121,-0.2122,-0.2123,-0.2124,-0.2128,-0.2129,-0.2134,-0.2132,-0.2132,-0.213,-0.2137,-0.213,-0.2129,-0.2129,-0.2119,-0.2118,-0.2117,0,0,0,0,0,-0.2115,-0.2108,-0.2111,-0.2111,-0.2112,-0.2112,-0.2112,-0.2118,-0.2122,-0.212,-0.2124,-0.2129,-0.213,-0.2132,-0.2132,-0.213,-0.213,-0.2129,-0.2129,-0.212,-0.2118,-0.2117,0,0,0,0,0,0,-0.2102,-0.2108,-0.2112,-0.2106,-0.2108,-0.2114,-0.211,-0.2116,-0.2117,-0.2118,-0.2125,-0.2126,-0.2124,-0.2127,-0.2129,-0.2126,-0.2131,-0.2131,-0.2124,-0.2123,-0.2122,-0.2121,-0.2137,0,0,0,0,0,-0.2098,-0.2097,-0.2103,-0.2097,-0.2098,-0.2104,-0.2104,-0.2109,-0.2112,-0.2113,-0.2117,-0.212,-0.2122,-0.2122,-0.2124,-0.212,-0.2123,-0.2119,-0.2118,-0.2117,-0.2116,-0.2118,-0.2117,-0.2127,-0.2127,-0.2127,0,0,-0.209,-0.2094,-0.2092,-0.2094,-0.2097,-0.2097,-0.2105,-0.2103,-0.2104,-0.2113,-0.2112,-0.2115,-0.212,-0.2118,-0.2118,-0.212,-0.2115,-0.2116,-0.2115,-0.2115,-0.2117,-0.2116,-0.2116,-0.2127,-0.2127,-0.2127,0,0,-0.2077,-0.2078,-0.2075,-0.2078,-0.2082,-0.2087,-0.2086,-0.2092,-0.2095,-0.2094,-0.2102,-0.2103,-0.2105,-0.2109,-0.2111,-0.2103,-0.2109,-0.2103,-0.2098,-0.2099,-0.2098,-0.2098,-0.2097,-0.2097,-0.2103,-0.2103,-0.2103,0,-0.2066,-0.2066,-0.2072,-0.2072,-0.2074,-0.2082,-0.2081,-0.2083,-0.2088,-0.2089,-0.2092,-0.2097,-0.21,-0.2101,-0.21,-0.2101,-0.2102,-0.2103,-0.2098,-0.2097,-0.2097,-0.2096,-0.2096,-0.2102,-0.2102,-0.2102,-0.2103,0,-0.2055,-0.2055,-0.2052,-0.2057,-0.2059,-0.2057,-0.2065,-0.2066,-0.2071,-0.2076,-0.2078,-0.2083,-0.2087,-0.2088,-0.2092,-0.209,-0.2092,-0.2096,-0.2102,-0.2095,-0.2095,-0.2095,-0.2102,-0.2102,-0.2102,-0.2102,0,0,-0.2031,-0.2042,-0.2041,-0.2045,-0.2052,-0.2053,-0.2053,-0.2058,-0.206,-0.2063,-0.2065,-0.2068,-0.2074,-0.2076,-0.2082,-0.2083,-0.208,-0.2087,-0.2088,-0.2087,-0.2081,-0.2079,-0.2078,-0.2084,-0.2083,-0.2083,-0.2082,0,-0.202,-0.202,-0.2028,-0.2027,-0.2029,-0.2039,-0.204,-0.2045,-0.2051,-0.2054,-0.2061,-0.2064,-0.2069,-0.2071,-0.2073,-0.2079,-0.2079,-0.208,-0.2087,-0.2087,-0.2086,-0.2078,-0.2074,-0.2072,-0.2081,-0.2081,-0.2081,0,-0.2006,-0.2011,-0.201,-0.2021,-0.2022,-0.2022,-0.2029,-0.2031,-0.2038,-0.2043,-0.2048,-0.2054,-0.2058,-0.2063,-0.2069,-0.2069,-0.2073,-0.2077,-0.2078,-0.2079,-0.2084,-0.208,-0.2071,-0.2071,-0.2081,-0.2081,-0.2081,0,-0.1992,-0.1997,-0.1999,-0.2002,-0.2013,-0.2014,-0.2018,-0.2026,-0.203,-0.2036,-0.2039,-0.2045,-0.2049,-0.2054,-0.2064,-0.2066,-0.207,-0.2075,-0.2075,-0.2075,-0.2075,-0.2075,-0.2068,-0.2076,-0.2076,-0.2076,-0.2076,0,-0.1979,-0.1979,-0.1993,-0.1994,-0.1995,-0.2005,-0.2006,-0.2012,-0.2019,-0.2023,-0.2032,-0.2035,-0.2047,-0.2053,-0.206,-0.2065,-0.2067,-0.2071,-0.2074,-0.2071,-0.2071,-0.2074,-0.2075,-0.2076,-0.2076,-0.2076,-0.2076,0,-0.1963,-0.1972,-0.1974,-0.1986,-0.1989,-0.1989,-0.2,-0.2002,-0.2009,-0.2014,-0.2016,-0.2027,-0.2035,-0.2045,-0.2054,-0.206,-0.2065,-0.2067,-0.2062,-0.2064,-0.2064,-0.2064,-0.2059,-0.206,-0.2066,-0.2066,-0.2066,0,-0.1955,-0.1955,-0.1967,-0.1971,-0.1975,-0.198,-0.1984,-0.1995,-0.1999,-0.201,-0.2011,-0.2019,-0.2026,-0.2038,-0.2048,-0.2056,-0.206,-0.2058,-0.2061,-0.206,-0.2062,-0.2062,-0.2064,-0.2057,-0.2057,-0.2057,-0.2057,0,-0.194,-0.1945,-0.1951,-0.1959,-0.1963,-0.197,-0.1977,-0.198,-0.1992,-0.1997,-0.2005,-0.201,-0.2022,-0.203,-0.2041,-0.2047,-0.2055,-0.2056,-0.2057,-0.2054,-0.2052,-0.2055,-0.2061,-0.2056,-0.2056,-0.2056,-0.2056,-0.2056,-0.1929,-0.1931,-0.1941,-0.1947,-0.1954,-0.1961,-0.1965,-0.1974,-0.198,-0.199,-0.1997,-0.2005,-0.2016,-0.2031,-0.2037,-0.2045,-0.2048,-0.2048,-0.2049,-0.2049,-0.2049,-0.205,-0.2047,-0.2047,-0.2047,-0.2047,-0.2047,0,-0.1916,-0.1924,-0.193,-0.194,-0.1946,-0.1953,-0.1962,-0.1967,-0.1974,-0.1983,-0.1991,-0.2001,-0.2011,-0.2022,-0.2033,-0.2037,-0.2041,-0.204,-0.204,-0.2042,-0.2045,-0.2044,-0.2037,-0.2037,-0.2037,-0.2037,-0.2037,-0.2037,-0.1911,-0.1915,-0.1922,-0.1931,-0.1939,-0.1947,-0.1952,-0.196,-0.1968,-0.1979,-0.1987,-0.1995,-0.2006,-0.2018,-0.2028,-0.2031,-0.2035,-0.2033,-0.2038,-0.204,-0.2041,-0.2042,-0.2041,-0.2034,-0.2034,-0.2035,-0.2035,-0.2035]}]]